x

Valley (03302) Weather Station

1:00 - Thu 25th Dec 2014 All times are GMT.

  • Wind
    21mph, 29mph gusts
  • Ar Temp 46°f
  • Sea Pressure 1024mb
  • Valley
  • Valley

More Historic Weather Station data

Upgrade to MSW Pro to gain access to the past 30 days of data for over 8000 Wavebouys and Weather Stations around the globe.

Join Pro

Comparision Forecast

View Surf forecast
   
Qui 12/25 1:00 21 29 mph 1024mb 46f
12:00 18
mph
1023mb 45f
Qua 12/24 11:00 21
mph
1023mb 45f
10:00 22 33 mph 1022mb 46f
9:00 22 32 mph 1022mb 46f
8:00 23 33 mph 1021mb 46f
7:00 25 33 mph 1020mb 46f
6:00 24 34 mph 1020mb 46f
5:00 22 32 mph 1019mb 46f
4:00 23 31 mph 1019mb 46f
3:00 23 33 mph 1018mb 46f
2:00 23 36 mph 1017mb 47f
1:00 24 37 mph 1017mb 46f
12:00 24 34 mph 1017mb 46f
11:00 24 34 mph 1017mb 45f
10:00 22 31 mph 1016mb 46f
9:00 18 29 mph 1016mb 44f
8:00 18 29 mph 1015mb 45f
7:00 18
mph
1014mb 44f
6:00 14
mph
1014mb 44f
5:00 15
mph
1013mb 44f
4:00 19
mph
1012mb 45f
3:00 18
mph
1012mb 46f
2:00 17
mph
1011mb 46f
1:00 16 29 mph 1011mb 47f
12:00 14
mph
1010mb 48f
Ter 12/23 11:00 11
mph
1009mb 49f
10:00 16 32 mph 1008mb 50f
9:00 25 36 mph 1007mb 52f
8:00 28 40 mph 1006mb 52f
7:00 30 40 mph 1006mb 52f
6:00 30 43 mph 1007mb 52f
5:00 28 40 mph 1007mb 52f
4:00 31 41 mph 1008mb 52f
3:00 30 43 mph 1008mb 52f
2:00 31 43 mph 1009mb 52f
1:00 31 45 mph 1009mb 52f
12:00 34 45 mph 1010mb 53f
11:00 33 44 mph 1010mb 53f
10:00 30 40 mph 1010mb 52f
9:00 30 40 mph 1010mb 52f
8:00 30 44 mph 1011mb 52f
7:00 31 40 mph 1011mb 52f
6:00 29 44 mph 1011mb 52f
5:00 32 43 mph 1010mb 52f
4:00 29 43 mph 1011mb 52f
3:00 28 41 mph 1011mb 52f
2:00 30 40 mph 1011mb 52f
1:00 30 39 mph 1011mb 52f
12:00 26 40 mph 1012mb 52f
Seg 12/22 11:00 28 37 mph 1011mb 52f
10:00 30 38 mph 1012mb 53f
9:00 29 37 mph 1012mb 53f
8:00 26 37 mph 1012mb 53f
7:00 28 36 mph 1011mb 53f
6:00 26 36 mph 1012mb 53f
5:00 28 36 mph 1011mb 53f
4:00 29 36 mph 1011mb 53f
3:00 29 38 mph 1011mb 53f
2:00 29 38 mph 1011mb 53f
1:00 30 40 mph 1011mb 53f
12:00 31 41 mph 1012mb 53f
11:00 32 40 mph 1012mb 53f
10:00 31 43 mph 1012mb 53f
9:00 30 43 mph 1012mb 53f
8:00 33 44 mph 1012mb 53f
7:00 34 46 mph 1011mb 53f
6:00 33 43 mph 1011mb 53f
5:00 32 43 mph 1011mb 53f
4:00 29 36 mph 1012mb 53f
3:00 28 38 mph 1012mb 53f
2:00 29 40 mph 1013mb 53f
1:00 29 38 mph 1013mb 53f
12:00 28 37 mph 1014mb 53f
Dom 12/21 11:00 28 37 mph 1014mb 53f
10:00 25 34 mph 1015mb 52f
9:00 28 39 mph 1015mb 52f
8:00 30 38 mph 1016mb 52f
7:00 30 39 mph 1016mb 52f
6:00 29 38 mph 1017mb 52f
5:00 28 43 mph 1017mb 52f
4:00 30 41 mph 1017mb 53f
3:00 33 43 mph 1017mb 52f
2:00 30 45 mph 1018mb 52f
1:00 33 45 mph 1019mb 52f
12:00 31 41 mph 1020mb 52f
11:00 28 38 mph 1021mb 52f
10:00 26 40 mph 1021mb 51f
9:00 29 41 mph 1022mb 51f
8:00 29 40 mph 1022mb 51f
7:00 28 38 mph 1022mb 50f
6:00 24 31 mph 1023mb 49f
5:00 24 38 mph 1024mb 48f
4:00 25 33 mph 1025mb 49f
3:00 23 33 mph 1026mb 48f
2:00 23 30 mph 1027mb 48f